STARLINK-4217, 52999

Orbit data source: Space-Track

STARLINK-4217, 52999 is a payload satellite owned by SpaceX/Seattle (US) in LEO that was launched on Thu, 07 Jul 2022 UTC via an FALCON 9 launch vehicle from the Air Force Eastern Test Range (AFETR). Payload-class satellites include a variety of spacecraft equipped with specific instruments for various scientific and technological missions. These include communications satellites like Starlink; space stations such as the ISS; scientific satellites like the Hubble; Earth observation satellites from companies like Planet Labs, Umbra, and HawkEye 360; GPS; miniature CubeSats for education and research; and military/defense satellites.

Loading next visibility...
Identifier
52999, 2022-076P
Orbit
LEO
Country
Flag of USUS
Related business
Manufacturer
SpaceX/Seattle
Mission
Operational Commercial Communications
Bus & Motor
STARLINK, Unknown motor
Mass
297 kg wet, ~275 kg dry
Launch date (UTC)
2022-07-07 (3 years ago)
Launch vehicle
FALCON 9
Launch site
Air Force Eastern Test Range (AFETR)
Object type
Payload
Rocket body
Debris
Shape & HBR
Box + 1 Pan, 10.1 m
Radar Cross Section
13.562 m², Large (>1 m²)

Expand to show TLE details & history
Last TLE update: 9 hours ago

TLE from 9 hours ago
0 STARLINK-4217
1 52999U 22076P   25341.86592786  .00000517  00000-0  50581-4 0  9993
2 52999  53.2170 146.3343 0001364  89.9427 270.1722 15.08839470188981
Epoch: 2025-12-07T20:46Z
TLE epoch observation values (Epoch: 2025-12-07T20:46:56.167Z)
Latitude
0.00004°
Longitude
117.72713°
Altitude
540.64 km
Speed
7.593 km/s
True Right ascension
09h 45m 20s
True Declination
0° 00' 00"
Sunlit
Object was in daylight at epoch
Visualization orbit readout
Latitude
Unknown
Longitude
Unknown
Altitude
Unknown
Speed
Unknown
Apparent Right ascension
Unknown
Apparent Declination
Unknown
Sunlit
N/A
Visualization observer readout
Local Sidereal Time
04:10:26
Azimuth
Unknown
Elevation
Unknown
Doppler factor
Unknown
Orbital elements
Apogee altitude
540.934 km
Perigee altitude
539.046 km
Semi-major axis
6,918.127 km
Eccentricity
0.00014
Inclination
53.217°
RAAN
146.3343°
Arg. of periapsis
89.9427°
True anomaly
270.15657°
Mean anomaly
270.1722°
Eccentric anomaly
270.16438°
Mean motion
3.7719 °/min
Orbital period
95.44 mins
BSTAR
0.000050581
Loading maneuver chart data...
Computing Atmospheric mass density...
Loading historical data...
Loading historical data...
Loading historical data...
Loading historical data...
Loading historical data...
Loading historical data...
Loading historical data...

Documentation

Showing up to 5 results
|